Time,TemperatureF,DewpointF,PressureIn,WindDirection,WindDirectionDegrees,WindSpeedMPH,WindSpeedGustMPH,Humidity,HourlyPrecipIn,Conditions,Clouds,dailyrainin,SoftwareType,DateUTC
2013-06-09 00:03:00,71.0,71.0,-100.00,SW,220,1.0,1.0,99,-99.99,,,-99.99,,2013-06-09 04:03:00,
2013-06-09 00:12:00,70.0,70.0,-100.00,SSW,205,0.0,1.0,99,-99.99,,,-99.99,,2013-06-09 04:12:00,
2013-06-09 00:23:00,70.0,70.0,-100.00,SSW,210,0.0,0.0,99,-99.99,,,-99.99,,2013-06-09 04:23:00,
2013-06-09 00:33:00,69.0,69.0,-100.00,SSE,165,0.0,1.0,99,-99.99,,,-99.99,,2013-06-09 04:33:00,
2013-06-09 00:43:00,69.0,69.0,-100.00,SSE,165,0.0,1.0,99,-99.99,,,-99.99,,2013-06-09 04:43:00,
2013-06-09 00:53:00,69.0,69.0,-100.00,SE,145,0.0,2.0,99,-99.99,,,-99.99,,2013-06-09 04:53:00,
2013-06-09 01:02:00,69.0,69.0,-100.00,South,180,1.0,1.0,99,-99.99,,,-99.99,,2013-06-09 05:02:00,
2013-06-09 01:12:00,69.0,68.0,-100.00,SSW,200,0.0,1.0,99,-99.99,,,-99.99,,2013-06-09 05:12:00,
2013-06-09 01:22:00,69.0,68.0,-100.00,SW,230,1.0,1.0,99,-99.99,,,-99.99,,2013-06-09 05:22:00,
2013-06-09 01:32:00,68.0,68.0,-100.00,NW,305,0.0,0.0,99,-99.99,,,-99.99,,2013-06-09 05:32:00,
2013-06-09 01:42:00,68.0,68.0,-100.00,NW,305,0.0,0.0,99,-99.99,,,-99.99,,2013-06-09 05:42:00,
2013-06-09 01:52:00,68.0,68.0,-100.00,NW,310,0.0,1.0,99,-99.99,,,-99.99,,2013-06-09 05:52:00,
2013-06-09 02:02:00,68.0,68.0,-100.00,West,280,0.0,0.0,99,-99.99,,,-99.99,,2013-06-09 06:02:00,
2013-06-09 02:12:00,68.0,68.0,-100.00,North,350,1.0,2.0,99,-99.99,,,-99.99,,2013-06-09 06:12:00,
2013-06-09 02:22:00,68.0,68.0,-100.00,NNW,335,1.0,2.0,99,-99.99,,,-99.99,,2013-06-09 06:22:00,
2013-06-09 02:32:00,67.0,67.0,-100.00,SW,235,0.0,1.0,99,-99.99,,,-99.99,,2013-06-09 06:32:00,
2013-06-09 02:42:00,67.0,67.0,-100.00,SW,235,0.0,1.0,99,-99.99,,,-99.99,,2013-06-09 06:42:00,
2013-06-09 02:52:00,67.0,67.0,-100.00,SW,235,0.0,0.0,99,-99.99,,,-99.99,,2013-06-09 06:52:00,
2013-06-09 03:02:00,67.0,67.0,-100.00,SW,235,0.0,1.0,99,-99.99,,,-99.99,,2013-06-09 07:02:00,
2013-06-09 03:12:00,67.0,67.0,-100.00,SW,235,0.0,0.0,99,-99.99,,,-99.99,,2013-06-09 07:12:00,
2013-06-09 03:22:00,67.0,67.0,-100.00,South,190,0.0,0.0,99,-99.99,,,-99.99,,2013-06-09 07:22:00,
2013-06-09 03:32:00,67.0,67.0,-100.00,South,170,0.0,0.0,99,-99.99,,,-99.99,,2013-06-09 07:32:00,
2013-06-09 03:42:00,67.0,66.0,-100.00,ENE,75,0.0,1.0,99,-99.99,,,-99.99,,2013-06-09 07:42:00,
2013-06-09 03:52:00,67.0,66.0,-100.00,ENE,75,0.0,1.0,99,-99.99,,,-99.99,,2013-06-09 07:52:00,
2013-06-09 04:02:00,67.0,66.0,-100.00,WNW,300,2.0,3.0,99,-99.99,,,-99.99,,2013-06-09 08:02:00,
2013-06-09 04:12:00,67.0,66.0,-100.00,WNW,300,1.0,3.0,99,-99.99,,,-99.99,,2013-06-09 08:12:00,
2013-06-09 04:22:00,66.0,66.0,-100.00,WNW,290,0.0,1.0,98,-99.99,,,-99.99,,2013-06-09 08:22:00,
2013-06-09 04:32:00,66.0,65.0,-100.00,East,90,1.0,2.0,97,-99.99,,,-99.99,,2013-06-09 08:32:00,
2013-06-09 04:42:00,66.0,66.0,-100.00,East,100,0.0,0.0,99,-99.99,,,-99.99,,2013-06-09 08:42:00,
2013-06-09 04:53:00,66.0,66.0,-100.00,East,80,1.0,1.0,99,-99.99,,,-99.99,,2013-06-09 08:53:00,
2013-06-09 05:02:00,66.0,66.0,-100.00,East,80,1.0,1.0,99,-99.99,,,-99.99,,2013-06-09 09:02:00,
2013-06-09 05:12:00,66.0,66.0,-100.00,East,80,0.0,0.0,99,-99.99,,,-99.99,,2013-06-09 09:12:00,
2013-06-09 05:22:00,66.0,66.0,-100.00,North,0,1.0,2.0,99,-99.99,,,-99.99,,2013-06-09 09:22:00,
2013-06-09 05:33:00,66.0,66.0,-100.00,SW,230,0.0,1.0,99,-99.99,,,-99.99,,2013-06-09 09:33:00,
2013-06-09 05:43:00,66.0,66.0,-100.00,SW,230,0.0,0.0,99,-99.99,,,-99.99,,2013-06-09 09:43:00,
2013-06-09 05:52:00,66.0,66.0,-100.00,SE,145,0.0,1.0,99,-99.99,,,-99.99,,2013-06-09 09:52:00,
2013-06-09 06:03:00,66.0,65.0,-100.00,SE,140,0.0,0.0,99,-99.99,,,-99.99,,2013-06-09 10:03:00,
2013-06-09 06:13:00,66.0,66.0,-100.00,ESE,105,1.0,2.0,99,-99.99,,,-99.99,,2013-06-09 10:13:00,
2013-06-09 06:23:00,66.0,65.0,-100.00,East,95,0.0,2.0,99,-99.99,,,-99.99,,2013-06-09 10:23:00,
2013-06-09 06:32:00,66.0,65.0,-100.00,NW,310,1.0,1.0,99,-99.99,,,-99.99,,2013-06-09 10:32:00,
2013-06-09 06:43:00,65.0,65.0,-100.00,NW,315,2.0,3.0,99,-99.99,,,-99.99,,2013-06-09 10:43:00,
2013-06-09 06:52:00,65.0,65.0,-100.00,SSW,210,0.0,1.0,99,-99.99,,,-99.99,,2013-06-09 10:52:00,
2013-06-09 07:02:00,65.0,65.0,-100.00,SSW,210,0.0,1.0,99,-99.99,,,-99.99,,2013-06-09 11:02:00,
2013-06-09 07:12:00,65.0,65.0,-100.00,SSW,210,0.0,1.0,99,-99.99,,,-99.99,,2013-06-09 11:12:00,
2013-06-09 07:22:00,66.0,65.0,-100.00,SSW,210,0.0,0.0,99,-99.99,,,-99.99,,2013-06-09 11:22:00,
2013-06-09 07:32:00,66.0,66.0,-100.00,SSW,210,0.0,0.0,99,-99.99,,,-99.99,,2013-06-09 11:32:00,
2013-06-09 07:42:00,67.0,66.0,-100.00,NNW,335,1.0,2.0,99,-99.99,,,-99.99,,2013-06-09 11:42:00,
2013-06-09 07:52:00,67.0,67.0,-100.00,NE,45,0.0,1.0,99,-99.99,,,-99.99,,2013-06-09 11:52:00,
2013-06-09 08:02:00,68.0,68.0,-100.00,NE,40,1.0,1.0,99,-99.99,,,-99.99,,2013-06-09 12:02:00,
2013-06-09 08:12:00,69.0,69.0,-100.00,East,85,2.0,3.0,99,-99.99,,,-99.99,,2013-06-09 12:12:00,
2013-06-09 08:22:00,70.0,70.0,-100.00,ENE,60,1.0,3.0,99,-99.99,,,-99.99,,2013-06-09 12:22:00,
2013-06-09 08:32:00,70.0,70.0,-100.00,SE,140,1.0,1.0,99,-99.99,,,-99.99,,2013-06-09 12:32:00,
2013-06-09 08:42:00,70.0,70.0,-100.00,North,10,0.0,1.0,99,-99.99,,,-99.99,,2013-06-09 12:42:00,
2013-06-09 08:52:00,71.0,70.0,-100.00,South,175,0.0,1.0,99,-99.99,,,-99.99,,2013-06-09 12:52:00,
2013-06-09 09:02:00,71.0,71.0,-100.00,East,95,1.0,1.0,99,-99.99,,,-99.99,,2013-06-09 13:02:00,
2013-06-09 09:12:00,72.0,72.0,-100.00,ESE,105,0.0,2.0,99,-99.99,,,-99.99,,2013-06-09 13:12:00,
2013-06-09 09:22:00,74.0,73.0,-100.00,North,0,1.0,1.0,99,-99.99,,,-99.99,,2013-06-09 13:22:00,
2013-06-09 09:32:00,75.0,74.0,-100.00,North,0,1.0,1.0,96,-99.99,,,-99.99,,2013-06-09 13:32:00,
2013-06-09 09:42:00,78.0,73.0,-100.00,NE,45,1.0,3.0,84,-99.99,,,-99.99,,2013-06-09 13:42:00,
2013-06-09 09:52:00,77.0,71.0,-100.00,NE,35,2.0,4.0,82,-99.99,,,-99.99,,2013-06-09 13:52:00,
2013-06-09 10:02:00,78.0,71.0,-100.00,North,0,1.0,2.0,80,-99.99,,,-99.99,,2013-06-09 14:02:00,
2013-06-09 10:12:00,80.0,72.0,-100.00,ENE,70,2.0,4.0,77,-99.99,,,-99.99,,2013-06-09 14:12:00,
2013-06-09 10:22:00,79.0,71.0,-100.00,NE,50,2.0,4.0,76,-99.99,,,-99.99,,2013-06-09 14:22:00,
2013-06-09 10:32:00,79.0,71.0,-100.00,SSE,165,0.0,4.0,77,-99.99,,,-99.99,,2013-06-09 14:32:00,
2013-06-09 10:43:00,81.0,72.0,-100.00,NE,55,1.0,2.0,73,-99.99,,,-99.99,,2013-06-09 14:43:00,
2013-06-09 10:52:00,81.0,71.0,-100.00,SE,135,1.0,2.0,72,-99.99,,,-99.99,,2013-06-09 14:52:00,
2013-06-09 11:02:00,82.0,72.0,-100.00,SSW,210,1.0,2.0,72,-99.99,,,-99.99,,2013-06-09 15:02:00,
2013-06-09 11:12:00,83.0,71.0,-100.00,NNW,330,2.0,4.0,69,-99.99,,,-99.99,,2013-06-09 15:12:00,
2013-06-09 11:22:00,83.0,72.0,-100.00,ESE,120,0.0,4.0,70,-99.99,,,-99.99,,2013-06-09 15:22:00,
2013-06-09 11:33:00,85.0,73.0,-100.00,East,100,2.0,4.0,67,-99.99,,,-99.99,,2013-06-09 15:33:00,
2013-06-09 11:43:00,83.0,70.0,-100.00,SE,135,4.0,6.0,65,-99.99,,,-99.99,,2013-06-09 15:43:00,
2013-06-09 11:53:00,85.0,70.0,-100.00,SE,145,2.0,5.0,62,-99.99,,,-99.99,,2013-06-09 15:53:00,
2013-06-09 12:03:00,85.0,70.0,-100.00,SE,140,3.0,7.0,62,-99.99,,,-99.99,,2013-06-09 16:03:00,
2013-06-09 12:13:00,83.0,68.0,-100.00,ESE,115,4.0,6.0,61,-99.99,,,-99.99,,2013-06-09 16:13:00,
2013-06-09 12:23:00,84.0,69.0,-100.00,ESE,110,2.0,6.0,60,-99.99,,,-99.99,,2013-06-09 16:23:00,
2013-06-09 12:33:00,85.0,69.0,-100.00,ESE,105,4.0,9.0,59,-99.99,,,-99.99,,2013-06-09 16:33:00,
2013-06-09 12:42:00,85.0,69.0,-100.00,ESE,105,4.0,9.0,59,-99.99,,,-99.99,,2013-06-09 16:42:00,
2013-06-09 12:53:00,85.0,70.0,-100.00,East,85,2.0,6.0,61,-99.99,,,-99.99,,2013-06-09 16:53:00,
2013-06-09 13:03:00,85.0,70.0,-100.00,SE,130,3.0,9.0,61,-99.99,,,-99.99,,2013-06-09 17:03:00,
2013-06-09 13:12:00,84.0,70.0,-100.00,East,100,8.0,11.0,62,-99.99,,,-99.99,,2013-06-09 17:12:00,
2013-06-09 13:22:00,85.0,70.0,-100.00,ESE,120,4.0,11.0,60,-99.99,,,-99.99,,2013-06-09 17:22:00,
2013-06-09 13:32:00,85.0,69.0,-100.00,SE,140,4.0,10.0,59,-99.99,,,-99.99,,2013-06-09 17:32:00,
2013-06-09 13:42:00,86.0,69.0,-100.00,ESE,105,4.0,11.0,58,-99.99,,,-99.99,,2013-06-09 17:42:00,
2013-06-09 13:52:00,87.0,69.0,-100.00,SE,125,4.0,8.0,56,-99.99,,,-99.99,,2013-06-09 17:52:00,
2013-06-09 14:02:00,86.0,69.0,-100.00,SSE,155,2.0,14.0,57,-99.99,,,-99.99,,2013-06-09 18:02:00,
2013-06-09 14:12:00,85.0,68.0,-100.00,ESE,120,4.0,11.0,56,-99.99,,,-99.99,,2013-06-09 18:12:00,
2013-06-09 14:22:00,84.0,68.0,-100.00,SE,135,5.0,10.0,59,-99.99,,,-99.99,,2013-06-09 18:22:00,
2013-06-09 14:33:00,84.0,69.0,-100.00,SSE,165,2.0,9.0,60,-99.99,,,-99.99,,2013-06-09 18:33:00,
2013-06-09 14:42:00,85.0,69.0,-100.00,SSE,155,1.0,4.0,60,-99.99,,,-99.99,,2013-06-09 18:42:00,
2013-06-09 14:52:00,82.0,70.0,-100.00,SSE,155,1.0,5.0,66,-99.99,,,-99.99,,2013-06-09 18:52:00,
2013-06-09 15:02:00,83.0,72.0,-100.00,WSW,245,1.0,4.0,71,-99.99,,,-99.99,,2013-06-09 19:02:00,
2013-06-09 15:12:00,82.0,72.0,-100.00,SW,230,1.0,3.0,70,-99.99,,,-99.99,,2013-06-09 19:12:00,
2013-06-09 15:22:00,81.0,73.0,-100.00,SW,230,1.0,4.0,75,-99.99,,,-99.99,,2013-06-09 19:22:00,
2013-06-09 15:32:00,81.0,73.0,-100.00,SW,230,1.0,4.0,75,-99.99,,,-99.99,,2013-06-09 19:32:00,
2013-06-09 15:42:00,78.0,75.0,-100.00,SE,135,4.0,9.0,92,-99.99,,,-99.99,,2013-06-09 19:42:00,
2013-06-09 15:52:00,73.0,71.0,-100.00,SSW,195,8.0,20.0,93,-99.99,,,-99.99,,2013-06-09 19:52:00,
2013-06-09 16:03:00,70.0,70.0,-100.00,SSE,155,6.0,16.0,99,-99.99,,,-99.99,,2013-06-09 20:03:00,
2013-06-09 16:12:00,69.0,69.0,-100.00,SE,140,4.0,13.0,99,-99.99,,,-99.99,,2013-06-09 20:12:00,
2013-06-09 16:22:00,69.0,69.0,-100.00,South,180,2.0,8.0,99,-99.99,,,-99.99,,2013-06-09 20:22:00,
2013-06-09 16:32:00,70.0,70.0,-100.00,SW,220,1.0,6.0,99,-99.99,,,-99.99,,2013-06-09 20:32:00,
2013-06-09 16:42:00,70.0,70.0,-100.00,SW,220,1.0,6.0,99,-99.99,,,-99.99,,2013-06-09 20:42:00,
2013-06-09 16:52:00,70.0,70.0,-100.00,SW,225,1.0,4.0,99,-99.99,,,-99.99,,2013-06-09 20:52:00,
2013-06-09 17:03:00,70.0,70.0,-100.00,SW,225,1.0,4.0,99,-99.99,,,-99.99,,2013-06-09 21:03:00,
2013-06-09 17:12:00,70.0,70.0,-100.00,West,260,1.0,3.0,99,-99.99,,,-99.99,,2013-06-09 21:12:00,
2013-06-09 17:22:00,70.0,70.0,-100.00,WSW,240,2.0,5.0,99,-99.99,,,-99.99,,2013-06-09 21:22:00,
2013-06-09 17:33:00,71.0,71.0,-100.00,SW,235,1.0,4.0,99,-99.99,,,-99.99,,2013-06-09 21:33:00,
2013-06-09 17:43:00,71.0,70.0,-100.00,South,185,1.0,4.0,99,-99.99,,,-99.99,,2013-06-09 21:43:00,
2013-06-09 17:53:00,71.0,71.0,-100.00,WSW,250,1.0,4.0,99,-99.99,,,-99.99,,2013-06-09 21:53:00,
2013-06-09 18:02:00,71.0,71.0,-100.00,WSW,250,1.0,4.0,99,-99.99,,,-99.99,,2013-06-09 22:02:00,
2013-06-09 18:13:00,71.0,71.0,-100.00,SW,220,1.0,4.0,99,-99.99,,,-99.99,,2013-06-09 22:13:00,
2013-06-09 18:23:00,72.0,72.0,-100.00,WSW,245,1.0,6.0,99,-99.99,,,-99.99,,2013-06-09 22:23:00,
2013-06-09 18:33:00,72.0,72.0,-100.00,SSW,195,1.0,4.0,99,-99.99,,,-99.99,,2013-06-09 22:33:00,
2013-06-09 18:42:00,72.0,72.0,-100.00,WSW,240,1.0,3.0,99,-99.99,,,-99.99,,2013-06-09 22:42:00,
2013-06-09 18:52:00,72.0,72.0,-100.00,SE,140,1.0,3.0,99,-99.99,,,-99.99,,2013-06-09 22:52:00,
2013-06-09 19:02:00,72.0,72.0,-100.00,SE,135,1.0,2.0,99,-99.99,,,-99.99,,2013-06-09 23:02:00,
2013-06-09 19:12:00,72.0,71.0,-100.00,SE,135,1.0,3.0,99,-99.99,,,-99.99,,2013-06-09 23:12:00,
2013-06-09 19:22:00,72.0,71.0,-100.00,West,270,0.0,1.0,99,-99.99,,,-99.99,,2013-06-09 23:22:00,
2013-06-09 19:32:00,72.0,71.0,-100.00,ESE,120,0.0,1.0,99,-99.99,,,-99.99,,2013-06-09 23:32:00,
2013-06-09 19:43:00,72.0,71.0,-100.00,SE,125,1.0,1.0,99,-99.99,,,-99.99,,2013-06-09 23:43:00,
2013-06-09 19:52:00,72.0,71.0,-100.00,SSE,160,0.0,1.0,99,-99.99,,,-99.99,,2013-06-09 23:52:00,
2013-06-09 20:02:00,72.0,71.0,-100.00,SSE,160,0.0,1.0,99,-99.99,,,-99.99,,2013-06-10 00:02:00,
2013-06-09 20:13:00,72.0,71.0,-100.00,ESE,110,1.0,2.0,99,-99.99,,,-99.99,,2013-06-10 00:13:00,
2013-06-09 20:22:00,72.0,71.0,-100.00,SE,140,0.0,2.0,99,-99.99,,,-99.99,,2013-06-10 00:22:00,
2013-06-09 20:32:00,72.0,71.0,-100.00,East,80,0.0,2.0,99,-99.99,,,-99.99,,2013-06-10 00:32:00,
2013-06-09 20:42:00,71.0,71.0,-100.00,SE,135,0.0,1.0,99,-99.99,,,-99.99,,2013-06-10 00:42:00,
2013-06-09 20:52:00,71.0,71.0,-100.00,SSW,195,1.0,2.0,99,-99.99,,,-99.99,,2013-06-10 00:52:00,
2013-06-09 21:03:00,71.0,71.0,-100.00,South,180,0.0,2.0,99,-99.99,,,-99.99,,2013-06-10 01:03:00,
2013-06-09 21:12:00,71.0,71.0,-100.00,SSE,160,1.0,4.0,99,-99.99,,,-99.99,,2013-06-10 01:12:00,
2013-06-09 21:22:00,70.0,70.0,-100.00,ESE,120,1.0,5.0,99,-99.99,,,-99.99,,2013-06-10 01:22:00,
2013-06-09 21:32:00,70.0,70.0,-100.00,SE,130,1.0,4.0,99,-99.99,,,-99.99,,2013-06-10 01:32:00,
2013-06-09 21:43:00,70.0,70.0,-100.00,SE,130,1.0,4.0,99,-99.99,,,-99.99,,2013-06-10 01:43:00,
2013-06-09 21:52:00,70.0,70.0,-100.00,ESE,120,1.0,3.0,99,-99.99,,,-99.99,,2013-06-10 01:52:00,
2013-06-09 22:02:00,70.0,70.0,-100.00,SE,140,1.0,3.0,99,-99.99,,,-99.99,,2013-06-10 02:02:00,
2013-06-09 22:12:00,70.0,70.0,-100.00,SSE,150,1.0,5.0,99,-99.99,,,-99.99,,2013-06-10 02:12:00,
2013-06-09 22:22:00,70.0,69.0,-100.00,East,95,1.0,2.0,99,-99.99,,,-99.99,,2013-06-10 02:22:00,
2013-06-09 22:32:00,69.0,69.0,-100.00,SE,135,1.0,4.0,99,-99.99,,,-99.99,,2013-06-10 02:32:00,
2013-06-09 22:42:00,69.0,69.0,-100.00,SE,135,1.0,4.0,99,-99.99,,,-99.99,,2013-06-10 02:42:00,
2013-06-09 22:52:00,69.0,69.0,-100.00,SSE,160,1.0,4.0,99,-99.99,,,-99.99,,2013-06-10 02:52:00,
2013-06-09 23:02:00,69.0,69.0,-100.00,SSE,160,1.0,4.0,99,-99.99,,,-99.99,,2013-06-10 03:02:00,
2013-06-09 23:12:00,69.0,69.0,-100.00,ESE,105,1.0,4.0,99,-99.99,,,-99.99,,2013-06-10 03:12:00,
2013-06-09 23:22:00,69.0,69.0,-100.00,SE,140,1.0,4.0,99,-99.99,,,-99.99,,2013-06-10 03:22:00,
2013-06-09 23:33:00,69.0,69.0,-100.00,South,170,1.0,4.0,99,-99.99,,,-99.99,,2013-06-10 03:33:00,
2013-06-09 23:43:00,69.0,69.0,-100.00,SE,140,1.0,2.0,99,-99.99,,,-99.99,,2013-06-10 03:43:00,
2013-06-09 23:53:00,69.0,69.0,-100.00,SE,145,1.0,4.0,99,-99.99,,,-99.99,,2013-06-10 03:53:00,